Terminal Aerodrome Forecast
Issued by NWS Pocatello, ID

Home | Current Version | Previous Version | Text Only | Print | Product List | Glossary On
Versions: 1 2 3 4 5 6 7 8 9 10 11 12 13
000
FTUS45 KPIH 251120
TAFIDA
TAF
KIDA 251120Z 2512/2612 20011KT P6SM VCSH BKN010 OVC060
     FM251700 22014G24KT P6SM VCSH SCT020 BKN040
     FM260100 21010KT P6SM SCT040
     FM260600 22007KT P6SM SCT150=

USA.gov is the U.S. government's official web portal to all federal, state and local government web resources and services.